Powrót do katalogu

YAOGAN 30 DEB

AktywnyMilitariaPO
NORAD 42677·DEBRIS·🇨🇳 China

Wystrzelony May 15, 2016 z Jiuquan Satellite Launch Center

Loading…

Następne Przeloty (najbliższe 24 godziny)

TLE

ŚwieżeSource: Space-Track

Epoka: Sep 14, 2026, 13:05 UTC

1 42677U 16029C   26257.54516397  .00002100  00000-0  59579-3 0  9997
2 42677  98.0141  10.4714 0228490 148.8026 212.6957 14.32219811524669

Śledź YAOGAN 30 DEB w czasie rzeczywistym z AllMySat

Download on the App Store